FW1087 Weather Reports


time (UTC)temp
C
wind
direction
speed
KPH
gust
KPH
rain 1hr
cm
rain 24hr
cm
rain mn
cm
humidity
%
barometer
mb
20260507154803 7 255 6.4 16.1 0.00 1.14 0.03 71 1008.8
20260507151802 7 281 4.8 16.1 0.00 1.24 0.03 74 1009.1
20260507144801 6 324 6.4 16.1 0.00 1.27 0.03 75 1009.2
20260507141801 6 253 6.4 14.5 0.00 1.30 0.03 79 1009.1
20260507134801 5 207 4.8 12.9 0.00 1.37 0.03 83 1008.9
20260507131803 4 258 4.8 16.1 0.00 1.50 0.03 93 1009.2
20260507124802 3 308 1.6 6.4 0.00 1.57 0.03 99 1009.2
20260507121802 3 345 0.0 0.0 0.00 1.70 0.03 99 1009.1
20260507114801 3 345 0.0 0.0 0.00 1.78 0.03 99 1009.0
20260507111804 3 345 0.0 0.0 0.00 1.78 0.03 99 1008.9
20260507104801 3 345 0.0 1.6 0.00 1.80 0.03 99 1008.9
20260507101759 2 345 0.0 1.6 0.00 1.80 0.03 99 1008.9
20260507100300 2 346 0.0 3.2 0.03 1.85 0.03 98 1008.8
20260507091757 2 345 0.0 1.6 0.03 1.88 0.03 98 1008.5
20260507084758 3 345 0.0 3.2 0.00 1.88 0.00 98 1008.8
20260507081755 2 345 1.6 3.2 0.00 1.93 0.00 98 1009.0
20260507074755 3 345 0.0 1.6 0.00 1.96 0.00 98 1008.9
20260507071754 3 345 0.0 1.6 0.00 1.98 0.00 98 1008.7
20260507064754 3 345 1.6 3.2 0.00 2.01 0.00 98 1008.6
20260507061800 3 345 0.0 3.2 0.00 2.06 0.00 98 1008.6
20260507061754 3 345 0.0 3.2 0.00 2.03 0.00 98 1008.8
20260507051756 3 316 0.0 1.6 0.00 2.16 0.00 98 1009.4
20260507050255 4 316 0.0 1.6 0.00 2.24 0.00 98 1009.5
20260507041758 4 315 1.6 6.4 0.00 2.49 2.41 98 1009.8
20260507041752 4 316 0.0 1.6 0.00 2.34 0.00 98 1009.6
20260507033254 5 330 3.2 4.8 0.00 2.57 2.41 98 1009.8
20260507024753 5 307 1.6 4.8 0.03 2.59 2.41 98 1009.3
20260507021754 5 329 1.6 4.8 0.13 2.59 2.41 98 1009.4
20260507014754 5 317 3.2 8.0 0.23 2.57 2.39 98 1010.2
20260507011752 5 356 0.0 4.8 0.20 2.46 2.29 98 1009.8
20260507010255 5 4 0.0 3.2 0.13 2.34 2.16 98 1009.3
20260507001754 5 3 0.0 3.2 0.05 2.26 2.08 98 1008.9
20260506234750 5 16 0.0 6.4 0.03 2.21 2.03 98 1008.5
20260506231749 5 74 0.0 6.4 0.03 2.21 2.03 97 1008.4
20260506224748 5 22 1.6 9.7 0.00 2.18 2.01 97 1008.4
20260506221746 5 27 0.0 4.8 0.00 2.18 2.01 97 1008.3
20260506214747 5 49 1.6 6.4 0.05 2.21 2.01 97 1008.3
20260506211749 5 35 1.6 8.0 0.03 2.46 1.96 97 1008.2
20260506211744 5 18 1.6 9.7 0.05 2.21 2.01 97 1008.4
20260506201744 5 355 1.6 4.8 0.05 2.46 1.96 97 1008.0
20260506194744 5 335 1.6 6.4 0.03 2.44 1.93 97 1007.9
20260506191743 5 0 3.2 12.9 0.03 2.41 1.91 97 1008.0
20260506184745 6 48 1.6 9.7 0.08 2.41 1.91 97 1008.3
20260506181744 5 4 1.6 11.3 0.15 2.39 1.88 97 1008.9
20260506174743 5 34 1.6 12.9 0.23 2.34 1.83 97 1008.7
20260506171744 5 30 1.6 14.5 0.33 2.24 1.73 98 1009.2
20260506164744 5 31 3.2 12.9 0.30 2.11 1.60 97 1009.1
20260506163245 6 315 3.2 8.0 0.20 1.91 1.40 97 1009.1